Погода в Гуапи

Колумбия     2°20′59″N   77°41′09″W
темп.,
°C
ветер,
м/с
пор.,
м/с
влажн.,
%
обл.,
%
осадки,
мм/ч
давл.,
гПа
погр.,
м
24 июля, сб
сб2401:00+22ююз1498100 6.1 1014205
04:00+22ююз1498100 0.0 1013233
07:00+22ююз2597100 0.1 1013306
10:00+25юз2381100 0.1 1015699
13:00+27з2271100 0.3 10131065
16:00+25вюв1185100 1.3 1011283
19:00+22юв1195100 5.1 101340
22:00+22юз1597100 5.8 1015316
25 июля, вс
вс2501:00+21ю1499100 17.9 1014215
04:00+21ю149897 0.4 1013203
07:00+22ююз149778 0.6 1014180
10:00+25зюз2382100 0.1 1015724
13:00+27зюз237390 1.4 1012991
16:00+24вюв1190100 4.0 1011135
19:00+22ю1194100 6.6 101332
22:00+22ю119699 0.3 101535
26 июля, пн
пн2601:00+21ю1197100 0.3 101417
04:00+21ю0098100 0.1 101316
07:00+21юв119681 0.1 101331
10:00+24ссз019045 0.0 1014340
13:00+29сз116596 0.3 10121223
16:00+24ссз139491 3.1 1010299
19:00+23ссз1197100 8.1 101250
22:00+22всв0198100 3.9 101546
27 июля, вт
вт2701:00+22юз009999 6.4 101445
04:00+22ююз1399100 1.9 1013182
07:00+22ю1298100 2.7 1014106
10:00+24юз129075 0.5 1015452
13:00+25зсз118787 4.1 1013648
16:00+25с129285 5.3 1011302
19:00+22ссв1197100 10.3 101325
22:00+22в1197100 3.8 101526
28 июля, ср
ср2801:00+22юв0099100 9.9 101428
04:00+21в0098100 0.1 101320
07:00+22ссв009799 0.1 101442
10:00+26сз118281 0.0 1014553
13:00+27ссз227675 0.3 1011933
16:00+27ссз127753 1.0 1009785
19:00+23зсз019578 1.9 101126
22:00+23зсз0197100 0.5 101348